Weather History for Monroe, MI

Change the Weather History Date:

Friday, January 18, 2013

  Actual Average Record
Temperature  
Mean Temperature 28 °F -  
Max Temperature 37 °F 31 °F 62 °F (1952)
Min Temperature 19 °F 17 °F -15 °F (1982)
Degree Days  
Heating Degree Days 37    
Moisture  
Dew Point 17 °F    
Average Humidity 59    
Maximum Humidity 80    
Minimum Humidity 52    
Precipitation  
Precipitation 0.00 in - - ()
Sea Level Pressure  
Sea Level Pressure 30.26 in    
Wind  
Wind Speed 8 mph (SW)    
Max Wind Speed 21 mph    
Max Gust Speed 33 mph    
Visibility 10 miles    
Events      
Averages and records for this station are not official NWS values.
T = Trace of Precipitation, MM = Missing Value Source: NWS Daily Summary

Daily Weather History Graph

Daily Weather History Graph

Search for Another Location

Airport:

Trip Planner

Search our weather history database for the weather conditions in past years. The results will help you decide how hot, cold, wet, or windy it might be!

Date:

Astronomy

Jan. 18, 2013 Rise Set
Actual Time 7:57 AM EST 5:31 PM EST
Civil Twilight 7:26 AM EST 6:02 PM EST
Nautical Twilight 6:52 AM EST 6:36 PM EST
Astronomical Twilight 6:19 AM EST 7:09 PM EST
Moon 11:27 AM EST (1/18) 12:28 AM EST (1/18)
Length of Visible Light 10h 35m
Length of Day
9h 34m
Waxing Crescent, 47% of the Moon is Illuminated
Jan 18
Waxing Crescent
Jan 18
First Quarter
Jan 26
Full
Feb 3
Last Quarter
Feb 10
New

Hourly Weather History & Observations

Time (EST) Temp. Windchill Dew Point Humidity Pressure Visibility Wind Dir Wind Speed Gust Speed Precip Events Conditions
12:11 AM 23.0 °F 17.0 °F 8.6 °F 54% 30.31 in 10.0 mi NW 4.6 mph - N/A   Overcast
12:31 AM 23.0 °F 18.4 °F 10.4 °F 59% 30.31 in 10.0 mi WNW 3.5 mph - N/A   Overcast
12:51 AM 23.0 °F 18.4 °F 10.4 °F 59% 30.32 in 10.0 mi NW 3.5 mph - N/A   Overcast
1:11 AM 23.0 °F 15.8 °F 12.2 °F 63% 30.33 in 10.0 mi WNW 5.8 mph - N/A   Overcast
1:31 AM 24.8 °F 13.4 °F 10.4 °F 54% 30.34 in 10.0 mi WNW 12.7 mph - N/A   Overcast
1:51 AM 24.8 °F 13.4 °F 10.4 °F 54% 30.35 in 10.0 mi WNW 12.7 mph - N/A   Overcast
2:11 AM 24.8 °F 16.1 °F 12.2 °F 59% 30.36 in 10.0 mi WNW 8.1 mph - N/A   Overcast
2:32 AM 24.8 °F 16.9 °F 12.2 °F 59% 30.37 in 10.0 mi NW 6.9 mph - N/A   Overcast
2:52 AM 24.8 °F 16.1 °F 12.2 °F 59% 30.38 in 10.0 mi WNW 8.1 mph - N/A   Overcast
3:12 AM 24.8 °F 16.9 °F 12.2 °F 59% 30.39 in 10.0 mi WNW 6.9 mph - N/A   Overcast
3:32 AM 23.0 °F 18.4 °F 12.2 °F 63% 30.39 in 10.0 mi WNW 3.5 mph - N/A   Overcast
3:52 AM 24.8 °F 17.9 °F 14.0 °F 64% 30.40 in 10.0 mi West 5.8 mph - N/A   Overcast
4:12 AM 24.8 °F 19.1 °F 15.8 °F 69% 30.39 in 10.0 mi WNW 4.6 mph - N/A   Overcast
4:32 AM 24.8 °F 17.9 °F 14.0 °F 64% 30.39 in 10.0 mi WNW 5.8 mph - N/A   Overcast
4:52 AM 23.0 °F 15.8 °F 14.0 °F 68% 30.39 in 10.0 mi WNW 5.8 mph - N/A   Overcast
5:12 AM 23.0 °F 17.0 °F 12.2 °F 63% 30.39 in 10.0 mi WNW 4.6 mph - N/A   Overcast
5:33 AM 23.0 °F - 14.0 °F 68% 30.40 in 10.0 mi Calm Calm - N/A   Overcast
5:53 AM 23.0 °F 15.8 °F 14.0 °F 68% 30.41 in 10.0 mi NW 5.8 mph - N/A   Overcast
6:13 AM 21.2 °F 14.9 °F 12.2 °F 68% 30.41 in 10.0 mi NNW 4.6 mph - N/A   Overcast
6:33 AM 21.2 °F 16.4 °F 10.4 °F 63% 30.41 in 10.0 mi North 3.5 mph - N/A   Overcast
7:33 AM 21.2 °F - 10.4 °F 63% 30.42 in 10.0 mi Calm Calm - N/A   Overcast
7:53 AM 19.4 °F - 8.6 °F 63% 30.42 in 10.0 mi Calm Calm - N/A   Mostly Cloudy
8:13 AM 19.4 °F - 12.2 °F 74% 30.42 in 10.0 mi Calm Calm - N/A   Clear
8:34 AM 19.4 °F - 12.2 °F 74% 30.41 in 10.0 mi Calm Calm - N/A   Clear
8:54 AM 19.4 °F - 14.0 °F 80% 30.42 in 10.0 mi Calm Calm - N/A   Scattered Clouds
9:14 AM 23.0 °F - 8.6 °F 54% 30.42 in 10.0 mi Calm Calm - N/A   Scattered Clouds
9:34 AM 24.8 °F - 10.4 °F 54% 30.43 in 10.0 mi Calm Calm - N/A   Scattered Clouds
9:54 AM 24.8 °F 20.5 °F 12.2 °F 59% 30.42 in 10.0 mi SSE 3.5 mph - N/A   Scattered Clouds
10:14 AM 26.6 °F 20.0 °F 15.8 °F 64% 30.42 in 10.0 mi SSE 5.8 mph - N/A   Clear
10:34 AM 28.4 °F 21.2 °F 19.4 °F 69% 30.41 in 10.0 mi South 6.9 mph - N/A   Clear
10:54 AM 28.4 °F 19.1 °F 17.6 °F 64% 30.40 in 10.0 mi SSW 10.4 mph - N/A   Clear
11:14 AM 30.2 °F 21.3 °F 19.4 °F 64% 30.40 in 10.0 mi SSW 10.4 mph - N/A   Scattered Clouds
11:34 AM 30.2 °F 21.3 °F 19.4 °F 64% 30.39 in 10.0 mi SSW 10.4 mph - N/A   Scattered Clouds
11:54 AM 30.2 °F 20.8 °F 19.4 °F 64% 30.37 in 10.0 mi SW 11.5 mph - N/A   Scattered Clouds
12:15 PM 30.2 °F 21.3 °F 19.4 °F 64% 30.35 in 10.0 mi SSW 10.4 mph - N/A   Mostly Cloudy
12:35 PM 30.2 °F 20.8 °F 19.4 °F 64% 30.33 in 10.0 mi SSW 11.5 mph - N/A   Mostly Cloudy
12:55 PM 30.2 °F 21.9 °F 19.4 °F 64% 30.32 in 10.0 mi SW 9.2 mph 13.8 mph N/A   Scattered Clouds
1:15 PM 32.0 °F 22.1 °F 17.6 °F 55% 30.30 in 10.0 mi SSW 13.8 mph - N/A   Scattered Clouds
1:35 PM 32.0 °F 22.1 °F 17.6 °F 55% 30.28 in 10.0 mi SW 13.8 mph - N/A   Scattered Clouds
1:55 PM 32.0 °F 23.0 °F 19.4 °F 60% 30.27 in 10.0 mi SSW 11.5 mph - N/A   Scattered Clouds
2:15 PM 33.8 °F 24.8 °F 19.4 °F 56% 30.26 in 10.0 mi SSW 12.7 mph - N/A   Clear
2:35 PM 33.8 °F 22.8 °F 17.6 °F 52% 30.25 in 10.0 mi SSW 18.4 mph 23.0 mph N/A   Clear
2:56 PM 33.8 °F 23.9 °F 19.4 °F 56% 30.23 in 10.0 mi SSW 15.0 mph - N/A   Clear
3:16 PM 33.8 °F 23.9 °F 19.4 °F 56% 30.22 in 10.0 mi SSW 15.0 mph - N/A   Clear
3:31 PM 33.8 °F 22.2 °F 19.4 °F 56% 30.21 in 10.0 mi SSW 20.7 mph 25.3 mph N/A   Clear
3:51 PM 33.8 °F 23.5 °F 19.4 °F 56% 30.20 in 10.0 mi SSW 16.1 mph 20.7 mph N/A   Clear
4:11 PM 35.6 °F 25.5 °F 21.2 °F 56% 30.19 in 10.0 mi SSW 17.3 mph 23.0 mph N/A   Clear
4:31 PM 35.6 °F 26.2 °F 21.2 °F 56% 30.18 in 10.0 mi SSW 15.0 mph 25.3 mph N/A   Clear
4:51 PM 35.6 °F 26.2 °F 21.2 °F 56% 30.17 in 10.0 mi SSW 15.0 mph 27.6 mph N/A   Clear
5:11 PM 33.8 °F 24.3 °F 21.2 °F 60% 30.15 in 10.0 mi SSW 13.8 mph 24.2 mph N/A   Clear
5:31 PM 35.6 °F 27.1 °F 21.2 °F 56% 30.14 in 10.0 mi SSW 12.7 mph - N/A   Clear
5:51 PM 35.6 °F 26.2 °F 21.2 °F 56% 30.13 in 10.0 mi SSW 15.0 mph 19.6 mph N/A   Clear
6:12 PM 33.8 °F 24.8 °F 21.2 °F 60% 30.13 in 10.0 mi SSW 12.7 mph 18.4 mph N/A   Clear
6:32 PM 35.6 °F 26.2 °F 21.2 °F 56% 30.11 in 10.0 mi SSW 15.0 mph 20.7 mph N/A   Scattered Clouds
6:52 PM 35.6 °F 25.2 °F 21.2 °F 56% 30.10 in 10.0 mi SSW 18.4 mph 21.9 mph N/A   Mostly Cloudy
7:12 PM 35.6 °F 26.2 °F 19.4 °F 52% 30.09 in 10.0 mi SSW 15.0 mph 23.0 mph N/A   Mostly Cloudy
7:32 PM 35.6 °F 25.5 °F 19.4 °F 52% 30.09 in 10.0 mi SSW 17.3 mph 20.7 mph N/A   Clear
7:52 PM 35.6 °F 25.5 °F 19.4 °F 52% 30.07 in 10.0 mi SSW 17.3 mph 25.3 mph N/A   Clear
8:12 PM 35.6 °F 24.8 °F 19.4 °F 52% 30.06 in 10.0 mi SSW 19.6 mph 28.8 mph N/A   Clear
8:32 PM 35.6 °F 25.5 °F 21.2 °F 56% 30.04 in 10.0 mi SSW 17.3 mph 33.4 mph N/A   Clear
8:52 PM 35.6 °F 24.5 °F 21.2 °F 56% 30.03 in 10.0 mi SSW 20.7 mph 29.9 mph N/A   Clear
9:12 PM 37.4 °F 27.5 °F 21.2 °F 52% 30.03 in 10.0 mi SSW 18.4 mph 31.1 mph N/A   Clear
9:33 PM 37.4 °F 27.2 °F 21.2 °F 52% 30.03 in 10.0 mi SSW 19.6 mph 27.6 mph N/A   Clear
9:53 PM 37.4 °F 27.8 °F 21.2 °F 52% 30.04 in 10.0 mi SW 17.3 mph 25.3 mph N/A   Clear
10:13 PM 37.4 °F 28.9 °F 21.2 °F 52% 30.03 in 10.0 mi SSW 13.8 mph 24.2 mph N/A   Clear
10:33 PM 37.4 °F 28.5 °F 21.2 °F 52% 30.02 in 10.0 mi SW 15.0 mph 24.2 mph N/A   Clear
10:53 PM 37.4 °F 28.2 °F 21.2 °F 52% 30.02 in 10.0 mi SW 16.1 mph 23.0 mph N/A   Clear
11:13 PM 37.4 °F 28.5 °F 23.0 °F 56% 30.01 in 10.0 mi SSW 15.0 mph 21.9 mph N/A   Clear
11:33 PM 37.4 °F 28.2 °F 23.0 °F 56% 30.00 in 10.0 mi SSW 16.1 mph 24.2 mph N/A   Clear
11:53 PM 37.4 °F 27.8 °F 24.8 °F 60% 30.00 in 10.0 mi SW 17.3 mph 26.5 mph N/A   Clear